Location: Asheville, NC
(35.6000°N, 82.5500°W)
Time: 07:24:38
(UTC-04:00)

STARS - Pass Details

Date: 05 January 2018
Orbit: 626 x 640 km, 98.3° (Epoch: 20 June)

Event Time Altitude Azimuth Distance (km) Brightness Sun altitude
Rises 05:53:51 0° 171° (S) 2,897 ? -21.1°
Reaches altitude 10° 05:56:02 10° 173° (S) 1,993 ? -20.6°
Maximum altitude 06:00:21 72° 258° (WSW) 660 ? -19.8°
Enters shadow 06:02:36 28° 337° (NNW) 1,180 ? -19.4°
